Regional Weather Roundup
Issued by NWS

Home | Current Version | Previous Version | Text Only | Print | Product List | Glossary Off
Versions: 1 2 3 4 5 6 7 8 9 10 11 12 13 14 15 16 17 18 19 20 21 22 23 24 25 26 27 28 29 30 31 32 33 34 35 36 37 38 39 40 41 42 43 44 45 46 47 48 49 50

000
ASUS43 KDTX 261610
RWRMI
MICHIGAN HOURLY REGIONAL WEATHER ROUNDUP
NATIONAL WEATHER SERVICE DETROIT/PONTIAC MI
1200 PM EDT SAT JUL 26 2014

NOTE: "FAIR" INDICATES FEW OR NO CLOUDS BELOW 12,000 FEET WITH NO
SIGNIFICANT WEATHER AND/OR OBSTRUCTION TO VISIBILITY.

MIZ047>049-052>055-059>063-066>070-074>076-081>083-261700-
SOUTHEAST LOWER MICHIGAN

CITY           SKY/WX    TMP DP  RH WIND       PRES   REMARKS
ADRIAN         SUNNY     75  61  61 W3        29.91S
ALMA           CLOUDY    73  61  66 W6        29.88S
ANN ARBOR      SUNNY     78  61  55 S5        29.90S
BAD AXE        CLOUDY    67  62  84 NW5       29.90R
DETROIT CITY   MOSUNNY   80  57  45 W8        29.90F
DETROIT        MOSUNNY   77  60  55 W5        29.91S
FLINT          CLOUDY    74  59  59 S6        29.89F
GROSSE ILE     SUNNY     73  64  73 S8        29.90R
HILLSDALE      MOSUNNY   76  62  62 SW3       29.90F
HOWELL         SUNNY     75  58  55 S6        29.89S

CITY           SKY/WX    TMP DP  RH WIND       PRES   REMARKS
JACKSON        SUNNY     76  60  57 SW6       29.89F
LAMBERTVILLE   PTSUNNY   79  61  53 SW6       29.90F
LANSING        SUNNY     74  60  61 VRB5      29.89F
LAPEER         NOT AVBL
MASON          SUNNY     73  62  67 SW3       29.89F
MONROE         SUNNY     79  63  57 W5        29.89R
MT. CLEMENS    CLOUDY    75  62  62 E10       29.90S
PONTIAC        PTSUNNY   75  59  57 S6        29.90S
PORT HOPE        N/A     65  60  84 SW3       29.87R
PORT HURON     CLOUDY    70  61  73 CALM      29.92R
TRI CITIES     MOSUNNY   75  61  61 W7        29.89R
YPSILANTI      SUNNY     81  59  47 SW5       29.91S
$$
MIZ043>046-050>051-056>058-064>065-071>073-077>080-261700-
SOUTHWEST LOWER MICHIGAN

CITY           SKY/WX    TMP DP  RH WIND       PRES   REMARKS
BATTLE CREEK   CLOUDY    74  61  63 S5        29.89F
BENTON HARBOR  CLOUDY    73  63  70 VRB3      29.85F
BIG RAPIDS     CLOUDY    72  62  71 SW6       29.86F
COLDWATER      CLOUDY    76  63  65 CALM      29.89F
HOLLAND        PTSUNNY   77  64  64 S5        29.87S
GRAND RAPIDS   PTSUNNY   76  63  64 E5        29.87F
KALAMAZOO      MOSUNNY   74  63  68 S7        29.88F
MARSHALL       PTSUNNY   73  61  64 SW3       29.88F
MUSKEGON       CLOUDY    72  61  68 SW6       29.86S
$$
MIZ016>042-261700-
NORTHERN LOWER MICHIGAN

CITY           SKY/WX    TMP DP  RH WIND       PRES   REMARKS
ALPENA         CLOUDY    71  62  73 S10       29.82F
BEAVER ISLAND  CLOUDY    67  65  94 SW8       29.78R
BELLAIRE       PTSUNNY   72  64  77 S9        29.79F
CADILLAC       CLOUDY    69  63  81 S3        29.85F
CHARLEVOIX     MOSUNNY   75  66  71 S14G20    29.79F
FRANKFORT      PTSUNNY   70  61  71 SW8G16    29.82F
GAYLORD        PTSUNNY   71  63  75 SW12      29.82F
GRAYLING       PTSUNNY   70  65  84 S5        29.84F
HARBOR SPRINGS PTSUNNY   68  64  89 N7        29.78S
MANISTEE       CLOUDY    72  63  73 SW7       29.85R
OSCODA         CLOUDY    68  62  81 SW7       29.86R
PELLSTON       CLOUDY    70  65  84 VRB3      29.79F
TRAVERSE CITY  CLOUDY    72  63  73 SW8       29.80F
$$
MIZ007>008-015-261700-
EASTERN UPPER MICHIGAN

CITY           SKY/WX    TMP DP  RH WIND       PRES   REMARKS
KINROSS        CLOUDY    66  64  94 S7        29.77S
MACKINAC ISLAN CLOUDY    69  64  84 SW6       29.77S
NEWBERRY       CLOUDY    66  64  91 S7        29.75S
S. S. MARIE    TSTM      65  63  93 S7        29.77S FOG
$$
MIZ004>006-011>014-085-261700-
CENTRAL UPPER MICHIGAN

CITY           SKY/WX    TMP DP  RH WIND       PRES   REMARKS
MANISTIQUE     PTSUNNY   65  62  91 SW12G18   29.75F FOG
ESCANABA       CLOUDY    68  61  77 S15       29.76S
MENOMINEE      CLOUDY    72  66  83 SW7       29.77F
SAWYER-GWINN   CLOUDY    72  66  83 W10       29.74F
$$
MIZ001>003-009>011-084-261700-
WESTERN UPPER MICHIGAN

CITY           SKY/WX    TMP DP  RH WIND       PRES   REMARKS
IRON MOUNTAIN  CLOUDY    74  65  73 W10       29.76F
HOUGHTON       MOSUNNY   70  63  78 W18       29.72S
COPPER HARBOR    N/A     71  66  84 NW8       29.69S
$$

ABBREVIATIONS USED IN REMARKS
   TC - TEMPERATURE IN CELSIUS
  WCI - WIND CHILL INDEX
   HX - HEAT INDEX
  VSB - VISIBILITY



USA.gov is the U.S. government's official web portal to all federal, state and local government web resources and services.